User: anonymous   Login
Location: Knowlton
(51.2333°N, 1.2667°E)
Time: 04:06:50
(UTC+00:00)
Language:

BREEZE-M DEB (TANK) - Orbit

View from above orbital plane
View from above orbital plane
View from above satellite
View from above satellite

Ground track
Ground track

The orbit data is extracted from the following two-line orbital elements,

1 37845U 11059C   21213.40187253  .00001032  00000-0  26158-3 0  9993
2 37845  49.7067 338.2192 4579909 129.1228 281.4874  6.30055443222806
Epoch (UTC): 01 August 2021 09:38:41
Eccentricity: 0.4579909
inclination: 49.7067°
perigee height: 333 km
apogee height: 11675 km
right ascension of ascending node: 338.2192°
argument of perigee: 129.1228°
revolutions per day: 6.30055443
mean anomaly at epoch: 281.4874°
orbit number at epoch: 22280

The dashed part of the orbit path shows where the satellite is in the earth's shadow,  

DLR